TimeMST,TemperatureF,Dew PointF,Humidity,Sea Level PressureIn,VisibilityMPH,Wind Direction,Wind SpeedMPH,Gust SpeedMPH,PrecipitationIn,Events,Conditions,WindDirDegrees,DateUTC
12:53 AM,39.9,16.0,38,30.05,10.0,West,13.8,-,N/A,,Clear,270,2013-01-19 07:53:00
1:53 AM,41.0,15.1,35,30.04,10.0,WSW,13.8,-,N/A,,Clear,250,2013-01-19 08:53:00
2:53 AM,39.0,15.1,38,30.09,10.0,WSW,10.4,-,N/A,,Clear,250,2013-01-19 09:53:00
3:53 AM,39.0,14.0,36,30.12,10.0,SW,9.2,-,N/A,,Clear,230,2013-01-19 10:53:00
4:53 AM,35.6,15.8,44,30.09,10.0,WSW,12.7,-,N/A,,Clear,240,2013-01-19 11:53:00
5:53 AM,37.0,14.0,39,30.14,10.0,WSW,15.0,-,N/A,,Clear,240,2013-01-19 12:53:00
6:53 AM,34.0,14.0,44,30.16,10.0,WSW,16.1,-,N/A,,Clear,240,2013-01-19 13:53:00
7:53 AM,33.1,14.0,46,30.19,10.0,WSW,16.1,-,N/A,,Clear,240,2013-01-19 14:53:00
8:53 AM,34.0,16.0,48,30.23,10.0,NNW,6.9,-,N/A,,Clear,330,2013-01-19 15:53:00
9:53 AM,35.1,17.1,48,30.29,10.0,ENE,8.1,-,N/A,,Clear,60,2013-01-19 16:53:00
10:53 AM,37.9,23.0,55,30.30,10.0,ENE,12.7,-,N/A,,Clear,70,2013-01-19 17:53:00
11:53 AM,37.0,23.0,57,30.28,10.0,East,11.5,-,N/A,,Clear,90,2013-01-19 18:53:00
12:53 PM,37.9,24.1,57,30.27,10.0,ENE,10.4,-,N/A,,Clear,60,2013-01-19 19:53:00
1:53 PM,36.0,25.0,64,30.26,10.0,ENE,11.5,-,N/A,,Clear,60,2013-01-19 20:53:00
2:53 PM,35.1,25.0,67,30.26,10.0,ENE,9.2,-,N/A,,Scattered Clouds,60,2013-01-19 21:53:00
3:53 PM,33.1,25.0,72,30.25,10.0,ENE,8.1,-,N/A,,Partly Cloudy,60,2013-01-19 22:53:00
4:53 PM,30.9,24.1,76,30.25,10.0,NE,6.9,-,N/A,,Partly Cloudy,50,2013-01-19 23:53:00
5:53 PM,28.9,23.0,78,30.23,10.0,Calm,Calm,-,N/A,,Partly Cloudy,0,2013-01-20 00:53:00
6:53 PM,25.0,21.0,85,30.22,10.0,Calm,Calm,-,N/A,,Partly Cloudy,0,2013-01-20 01:53:00
7:53 PM,23.0,19.9,88,30.21,10.0,West,3.5,-,N/A,,Clear,260,2013-01-20 02:53:00
8:53 PM,24.1,19.9,84,30.20,10.0,NE,4.6,-,N/A,,Clear,40,2013-01-20 03:53:00
9:53 PM,28.0,21.9,78,30.17,10.0,SW,12.7,-,N/A,,Clear,230,2013-01-20 04:53:00
10:53 PM,30.0,19.9,66,30.16,10.0,WSW,15.0,-,N/A,,Clear,240,2013-01-20 05:53:00
11:53 PM,33.1,18.0,54,30.16,10.0,WSW,16.1,-,N/A,,Clear,250,2013-01-20 06:53:00